Tracking 19976 objects as of 15-Nov-2019
Live streaming from Space Station
objects crossing your sky now

PICOSAT 6

Track PICOSAT 6 now!
10-day predictions
PICOSAT 6 is classified as:


NORAD ID: 26094
Int'l Code: 2000-004M
Perigee: 733.3 km
Apogee: 781.1 km
Inclination: 100.2 °
Period: 99.8 minutes
Semi major axis: 7128 km
RCS: 0.0137 m2 (small)
Launch date: January 27, 2000
Source: United States (US)
Launch site: AIR FORCE WESTERN TEST RANGE (AFWTR)
aabbcc
Your satellite tracking list
Your tracking list is empty




NASA's NSSDC Master Catalog

Two Line Element Set (TLE):
1 26094U 00004M   19318.41848769  .00000108  00000-0  50354-4 0  9994
2 26094 100.2037 183.5179 0033540 215.2977 144.5986 14.42553440 37883
Source of the keplerian elements: AFSPC